Location: Fort Worth, Tx
(32.7431°N, 97.3695°W)
Time: 19:12:38
(UTC-04:00)

Vanguard 1 Rocket - Pass Details

Date: 20 September 2024
Orbit: 650 x 4218 km, 34.3° (Epoch: 11 October)

Event Time Altitude Azimuth Distance (km) Brightness Sun altitude
Exits shadow 05:06:53 73° 221° (SW) 2,454 9.1 -38.8°
Maximum altitude 05:08:34 82° 160° (SSE) 2,537 9.3 -38.5°
Drops below altitude 10° 05:30:11 10° 77° (ENE) 7,011 12.6 -34.6°
Sets 05:36:24 0° 77° (ENE) 8,309 13.3 -33.4°
